Skip Page Navigation
NASA JPL Caltech
NASA Logo - Jet Propulsion Laboratory + View the NASA Portal
+ Center for Near-Earth Object Studies
JPL Home Earth Solar System Stars & Galaxies Technology
JPL Solar System Dynamics
BODIES ORBITS EPHEMERIDES TOOLS PHYSICAL DATA DISCOVERY FAQ SITE MAP
JPL Small-Body Database Browser
Search: [ help ]  
201116 (2002 JV13)
Classification: Inner Main-belt Asteroid          SPK-ID: 2201116
Ephemeris | Orbit Diagram | Orbital Elements | Mission Design | Physical Parameters | Discovery Circumstances ]

[ show orbit diagram ]
Orbital Elements at Epoch 2459000.5 (2020-May-31.0) TDB
Reference: JPL 14 (heliocentric ecliptic J2000)
 Element Value Uncertainty (1-sigma)   Units 
e .06489404006660042 5.0295e-08  
a 1.929763636318705 9.2803e-09 au
q 1.804533477584371 9.4161e-08 au
i 22.40752225040665 7.0334e-06 deg
node 54.29035042090035 1.4956e-05 deg
peri 256.4398379329143 6.6199e-05 deg
M 185.4129433129426 6.6364e-05 deg
tp 2459475.358424441072
(2021-Sep-17.85842444)
0.00018162 TDB
period 979.1621214235113
2.68
7.0633e-06
1.934e-08
d
yr
n .367661281133537 2.6522e-09 deg/d
Q 2.05499379505304 9.8826e-09 au
  Orbit Determination Parameters
   # obs. used (total)      324  
   data-arc span      7033 days (19.26 yr)  
   first obs. used      2000-09-26  
   last obs. used      2019-12-29  
   planetary ephem.      DE431  
   SB-pert. ephem.      SB431-N16  
   condition code      0  
   norm. resid. RMS      .63807  
   source      ORB  
   producer      Otto Matic  
   solution date      2020-Nov-12 05:07:32  

Additional Information
 Earth MOID = .8596 au 
 Jupiter MOID = 3.05791 au 
 T_jup = 3.820 
[ show covariance matrix ]

Ephemeris | Orbit Diagram | Orbital Elements | Mission Design | Physical Parameters | Discovery Circumstances ]

Physical Parameter Table
Parameter Symbol Value Units Sigma Reference Notes
absolute magnitude H 17.1   n/a MPO449980  

201116 (2002 JV13)          Discovered 2002-May-08 by LINEAR at Socorro
Reference: 20081212/Numbers.arcLast Updated: 2008-12-12
Ephemeris | Orbit Diagram | Orbital Elements | Mission Design | Physical Parameters | Discovery Circumstances ]
ABOUT SSD CREDITS/AWARDS PRIVACY/COPYRIGHT GLOSSARY LINKS
FirstGov 2020-Nov-27 12:07 UT
(server date/time)  
NASA Home Page
Site Manager:   Ryan S. Park
Webmaster  Alan B. Chamberlin